Starlink 1672

operational
NORAD ID: 46537 Int'l Des: 2020-070 Owner: SPXS Country: US Constellation: starlink
LEOCIRCULARSTARLINK_TYPE

About Starlink 1672

Description loading...

Live Position

Loading 3D Globe...

Upcoming Passes

Altitude History

Altitude vs Time

uPlot chart will show altitude changes over time

Two-Line Element Set

1 46537U 20070F 25304.66668980 .00086259 00000-0 23321-2 0 9990
2 46537 53.0546 33.4673 0001708 46.0962 195.3918 15.37004693 5806
Epoch: Oct 31, 2025 • Age: 5 hours

Current Status

Altitude 468.5 km
Velocity 7.63 km/s
Sub-Earth Point -38.30°S, 101.16°W
Launch Date Oct 6, 2020
Age 5 years
Type internet

Technical Details

Classification Payload
Mass 260.00 kg
Dry Mass 248.00 kg
Total Mass 260.00 kg
Length 0.20 m
Diameter 2.80 m
Span 9.00 m
Shape Box + pan
Manufacturer SPXS
Bus Type Starlink
Phase Status In Orbit
Owner/State SPXS/US

Large Constellations

Loading constellations...